Total_Precipitation_Accumulation
0.05 0.10 0.16 0.19 0.15 0.13 0.10 0.10 0.12 0.15 0.24 0.32 0.41 0.42 0.36 0.36 0.40 0.39 0.41 0.36 0.33 0.37 0.30 0.29 0.31 0.30 0.32 0.36 0.41 0.40 0.45 0.53 0.59 0.68 0.75 0.84 1.00 1.12 1.23 1.29 1.20 1.23 1.33 1.34
0.06 0.10 0.12 0.13 0.16 0.12 0.08 0.07 0.08 0.11 0.22 0.35 0.38 0.43 0.42 0.36 0.35 0.39 0.45 0.43 0.47 0.47 0.43 0.45 0.43 0.39 0.39 0.46 0.49 0.54 0.62 0.66 0.69 0.77 0.86 0.90 0.98 1.04 1.19 1.26 1.31 1.39 1.46 1.47
0.15 0.15 0.15 0.16 0.15 0.11 0.09 0.10 0.11 0.13 0.20 0.32 0.41 0.47 0.51 0.50 0.44 0.45 0.57 0.59 0.67 0.71 0.66 0.61 0.53 0.47 0.48 0.54 0.61 0.68 0.77 0.89 0.95 1.00 1.11 1.13 1.15 1.14 1.18 1.32 1.41 1.44 1.45 1.46
0.21 0.24 0.28 0.18 0.14 0.13 0.12 0.13 0.16 0.23 0.28 0.37 0.49 0.53 0.58 0.68 0.65 0.58 0.56 0.60 0.70 0.78 0.80 0.73 0.68 0.66 0.73 0.78 0.84 0.96 1.06 1.19 1.32 1.38 1.45 1.50 1.55 1.51 1.51 1.55 1.63 1.62 1.54 1.55
0.32 0.38 0.32 0.25 0.22 0.20 0.22 0.29 0.30 0.37 0.53 0.62 0.61 0.72 0.84 0.76 0.67 0.64 0.65 0.67 0.83 0.83 0.82 0.81 0.92 0.94 0.95 0.99 1.06 1.22 1.40 1.52 1.63 1.68 1.72 1.73 1.71 1.75 1.80 1.89 1.90 1.90 1.86 1.90
0.39 0.44 0.45 0.41 0.37 0.35 0.43 0.75 0.63 0.65 0.67 0.64 0.64 0.87 0.92 0.69 0.60 0.62 0.65 0.76 0.88 0.94 0.93 1.00 1.22 1.25 1.26 1.30 1.38 1.44 1.49 1.60 1.77 1.88 1.94 1.89 1.88 1.99 2.13 2.25 2.21 2.21 2.23 2.23
0.47 0.49 0.45 0.45 0.43 0.49 0.85 1.20 0.98 0.88 0.83 0.81 0.89 0.90 0.90 0.76 0.65 0.63 0.65 0.73 0.83 0.88 0.94 1.00 1.16 1.29 1.52 1.66 1.70 1.74 1.76 1.77 1.82 1.90 2.01 2.01 2.06 2.09 2.21 2.32 2.31 2.27 2.19 2.11
0.70 0.79 0.80 0.53 0.57 0.85 1.09 0.96 0.99 1.08 1.11 1.09 1.04 0.90 0.78 0.70 0.68 0.63 0.60 0.63 0.73 0.89 0.99 1.09 1.25 1.47 1.65 1.79 1.91 1.99 1.97 2.03 2.01 2.03 1.98 1.93 2.06 2.17 2.26 2.37 2.32 2.26 2.26 2.13
0.94 1.03 0.92 0.71 0.78 0.79 0.79 0.92 1.00 1.04 1.15 1.19 1.13 1.12 0.96 0.87 0.84 0.77 0.71 0.69 0.73 0.85 0.99 1.09 1.19 1.40 1.71 1.76 1.78 1.81 1.86 1.89 1.94 1.95 1.97 1.99 2.06 2.15 2.26 2.29 2.26 2.19 2.20 2.19
1.10 1.12 1.00 0.93 0.93 0.92 0.90 0.97 0.97 1.01 1.06 1.09 1.08 1.16 1.11 0.96 0.82 0.75 0.72 0.73 0.79 0.86 0.97 1.04 1.01 1.11 1.28 1.41 1.48 1.51 1.53 1.56 1.56 1.66 1.74 1.89 2.07 2.09 2.16 2.23 2.26 2.26 2.21 2.15
1.31 1.42 1.40 1.28 1.20 1.15 1.06 1.14 1.18 1.11 1.10 1.14 1.02 1.04 1.05 0.89 0.75 0.66 0.63 0.62 0.69 0.84 0.85 0.89 0.96 0.96 0.99 1.04 1.19 1.29 1.32 1.35 1.41 1.53 1.63 1.80 1.99 2.10 2.02 2.03 2.17 2.10 1.99 1.89
1.34 1.38 1.52 1.54 1.34 1.23 1.13 1.18 1.20 1.15 1.07 1.02 0.94 0.92 0.84 0.72 0.62 0.60 0.59 0.61 0.66 0.72 0.72 0.71 0.79 0.80 0.81 0.92 1.10 1.21 1.22 1.23 1.25 1.28 1.39 1.50 1.64 1.73 1.67 1.48 1.52 1.45 1.32 1.20
1.16 1.26 1.39 1.50 1.38 1.30 1.31 1.30 1.23 1.15 1.05 0.99 0.88 0.83 0.77 0.68 0.60 0.59 0.63 0.68 0.74 0.78 0.77 0.76 0.74 0.75 0.80 0.90 1.06 1.22 1.19 1.15 1.16 1.17 1.24 1.27 1.32 1.42 1.46 1.33 1.15 1.06 0.92 0.79
1.27 1.40 1.63 1.73 1.53 1.37 1.39 1.28 1.21 1.25 1.21 1.09 0.91 0.79 0.69 0.68 0.65 0.66 0.74 0.82 0.86 0.86 0.84 0.82 0.80 0.77 0.79 0.90 1.06 1.31 1.39 1.32 1.21 1.17 1.18 1.18 1.21 1.27 1.36 1.40 1.29 1.07 0.83 0.63
1.41 1.47 1.55 1.53 1.44 1.37 1.37 1.36 1.29 1.24 1.13 1.07 0.98 0.82 0.71 0.66 0.67 0.70 0.75 0.84 0.93 0.92 0.88 0.82 0.78 0.76 0.78 0.83 0.92 1.08 1.29 1.31 1.21 1.16 1.18 1.21 1.22 1.29 1.37 1.38 1.41 1.32 1.05 0.74
1.43 1.42 1.48 1.45 1.39 1.31 1.24 1.32 1.33 1.16 0.98 0.95 0.93 0.81 0.76 0.71 0.68 0.67 0.73 0.89 1.07 1.08 0.95 0.86 0.82 0.77 0.78 0.82 0.84 0.92 1.02 1.01 0.95 0.98 1.02 1.08 1.14 1.18 1.23 1.29 1.32 1.28 1.13 0.86
1.27 1.32 1.41 1.47 1.38 1.26 1.19 1.25 1.22 1.05 0.85 0.77 0.85 0.84 0.79 0.80 0.82 0.85 0.90 0.97 1.06 1.08 1.01 0.95 0.87 0.77 0.72 0.74 0.80 0.81 0.85 0.79 0.71 0.77 0.88 0.94 1.01 1.06 1.07 1.09 1.12 1.11 1.01 0.71
1.01 1.07 1.06 1.08 1.14 1.16 1.11 1.08 1.05 0.97 0.85 0.77 0.80 0.84 0.82 0.89 1.00 1.09 1.12 1.11 1.05 0.94 0.89 0.87 0.77 0.69 0.65 0.65 0.71 0.76 0.84 0.81 0.66 0.67 0.81 0.85 0.86 0.95 0.95 0.96 0.98 1.00 0.90 0.65
0.93 0.96 0.87 0.83 0.85 0.90 0.94 0.93 0.86 0.82 0.78 0.79 0.84 0.89 0.86 0.90 0.99 1.07 1.07 1.15 1.20 1.09 0.89 0.73 0.65 0.54 0.53 0.51 0.52 0.62 0.75 0.81 0.69 0.62 0.70 0.70 0.76 0.94 0.97 0.95 0.97 0.97 0.83 0.72
0.85 0.86 0.83 0.76 0.73 0.78 0.80 0.82 0.79 0.78 0.76 0.79 0.86 0.86 0.87 0.91 0.97 1.04 1.03 1.08 1.15 1.13 0.94 0.72 0.53 0.42 0.38 0.38 0.42 0.48 0.59 0.69 0.62 0.55 0.60 0.69 0.80 0.93 1.00 0.98 0.99 1.00 0.88 0.77
0.76 0.78 0.78 0.74 0.73 0.76 0.76 0.71 0.69 0.75 0.76 0.77 0.83 0.87 0.90 0.88 0.87 0.95 1.10 1.14 1.05 1.02 0.96 0.85 0.61 0.44 0.34 0.35 0.38 0.44 0.57 0.65 0.58 0.49 0.50 0.59 0.75 0.87 0.94 0.94 0.93 0.90 0.82 0.74
0.74 0.73 0.69 0.69 0.73 0.76 0.76 0.70 0.64 0.62 0.64 0.74 0.78 0.81 0.90 0.87 0.85 0.86 0.87 1.00 0.99 1.03 0.93 0.83 0.70 0.55 0.42 0.34 0.32 0.38 0.50 0.57 0.54 0.45 0.43 0.50 0.64 0.76 0.84 0.88 0.90 0.87 0.82 0.79
0.78 0.69 0.64 0.66 0.66 0.68 0.67 0.64 0.60 0.59 0.69 0.85 0.87 0.88 0.92 0.86 0.87 0.96 0.90 0.75 0.76 0.88 0.77 0.70 0.70 0.60 0.45 0.36 0.33 0.38 0.50 0.57 0.57 0.46 0.43 0.50 0.58 0.63 0.71 0.74 0.76 0.79 0.83 0.77
0.83 0.70 0.66 0.65 0.63 0.65 0.69 0.63 0.58 0.61 0.73 0.85 0.83 0.84 0.88 0.86 0.85 0.81 0.78 0.73 0.73 0.76 0.66 0.62 0.59 0.53 0.48 0.45 0.46 0.48 0.53 0.56 0.53 0.43 0.40 0.44 0.48 0.52 0.60 0.69 0.77 0.82 0.78 0.70
0.82 0.74 0.69 0.69 0.67 0.65 0.70 0.66 0.62 0.63 0.71 0.82 0.79 0.78 0.75 0.75 0.84 0.83 0.75 0.70 0.72 0.72 0.65 0.62 0.55 0.50 0.49 0.56 0.61 0.59 0.54 0.51 0.49 0.43 0.42 0.43 0.45 0.48 0.57 0.71 0.82 0.82 0.74 0.71
0.82 0.81 0.78 0.74 0.65 0.57 0.56 0.60 0.63 0.61 0.72 0.93 0.87 0.75 0.70 0.66 0.69 0.75 0.79 0.74 0.71 0.73 0.67 0.61 0.54 0.53 0.51 0.60 0.66 0.63 0.56 0.52 0.50 0.48 0.46 0.47 0.50 0.56 0.65 0.75 0.78 0.69 0.61 0.58
0.79 0.74 0.70 0.67 0.63 0.59 0.58 0.58 0.58 0.61 0.71 0.94 0.97 0.76 0.66 0.65 0.68 0.73 0.79 0.80 0.75 0.71 0.65 0.58 0.52 0.49 0.50 0.55 0.57 0.55 0.53 0.51 0.52 0.52 0.49 0.49 0.50 0.55 0.59 0.64 0.63 0.55 0.51 0.48